Location: Isles
(48.9125°N, 2.8272°E)
Time: 12:18:46
(UTC+00:00)

Cosmos 2278 Rocket - Pass Details

Date: 03 February 2023
Orbit: 841 x 845 km, 71.0° (Epoch: 25 March)

Event Time Altitude Azimuth Distance (km) Brightness Sun altitude
Rises 19:54:43 0° 332° (NNW) 3,416 5.9 -30.6°
Reaches altitude 10° 19:57:11 10° 334° (NNW) 2,477 5.0 -31.0°
Enters shadow 20:00:50 41° 342° (NNW) 1,212 3.1 -31.6°
